Regional Weather Roundup
Issued by NWS

Home | Current Version | Previous Version | Graphics & Text | Print | Product List | Glossary On
Versions: 1 2 3 4 5 6 7 8 9 10 11 12 13 14 15 16 17 18 19 20 21 22 23 24 25 26 27 28 29 30 31 32 33 34 35 36 37 38 39 40 41 42 43 44 45 46 47 48 49 50
000
ASUS44 KMEG 250200
RWRTN
TENNESSEE HOURLY STATE WEATHER ROUNDUP
NATIONAL WEATHER SERVICE MEMPHIS TN
800 PM CST WED DEC 24 2014

TNZ002-004-019-021-049-052-054-088>092-250300-
WEST TENNESSEE

CITY           SKY/WX    TMP DP  RH WIND       PRES   REMARKS
MEMPHIS INTL   MOCLDY    42  37  82 W6        29.94R
NWS MEMPHIS      N/A     42 N/A N/A MISG        N/A
JACKSON        CLOUDY    41  35  79 W9        29.92R
DYERSBURG      CLOUDY    41  27  56 W10       29.92R
UNION CITY     CLOUDY    39  36  87 SW9       29.87R WCI  33
PARIS          CLOUDY    37  34  87 W9        29.87R WCI  31
LEXINGTON      CLOUDY    39  36  87 W12       29.89R WCI  32
SAVANNAH       MOCLDY    43  36  75 W9        29.92R
$$

TNZ008-025-027-028-033-062-065-066-250300-
NORTH MIDDLE TENNESSEE

CITY           SKY/WX    TMP DP  RH WIND       PRES   REMARKS
NASHVILLE      LGT RAIN  42  37  82 W10       29.86R
CLARKSVILLE    LGT RAIN  41  37  86 W9        29.85R
COOKEVILLE     CLOUDY    45  41  87 W5        29.81S
CROSSVILLE     CLOUDY    42  37  82 W12       29.80S
$$

TNZ061-075-076-078-094-096-097-250300-
SOUTH MIDDLE TENNESSEE

CITY           SKY/WX    TMP DP  RH WIND       PRES   REMARKS
FAYETTEVILLE   MOCLDY    39  37  93 MISG      29.87R
TULLAHOMA      MOCLDY    39  36  87 W14       29.86R WCI  31
WINCHESTER     MOCLDY    43  39  87 W10       29.86R
SHELBYVILLE    CLOUDY    43  39  87 W9        29.87R
$$

TNZ017-018-042-046-047-250300-
NORTHEAST TENNESSEE

CITY           SKY/WX    TMP DP  RH WIND       PRES   REMARKS
TRI CITIES     CLOUDY    49  42  77 W15G22    29.74R
ELIZABETHTON   DRIZZLE   46  45  93 W7        29.74R
$$

TNZ012-013-036-069-073-074-250300-
CENTRAL EAST TENNESSEE

CITY           SKY/WX    TMP DP  RH WIND       PRES   REMARKS
KNOXVILLE      CLOUDY    46  41  82 W13       29.81R
OAK RIDGE      CLOUDY    47  39  74 VRB3      29.82R
GATLINBURG     CLOUDY    45  41  87 W9        29.80R
$$

TNZ083-085-099-250300-
SOUTHEAST TENNESSEE

CITY           SKY/WX    TMP DP  RH WIND       PRES   REMARKS
CHATTANOOGA    CLOUDY    48  41  76 W3        29.86R
$$

SKY/WX REPORTED AS FAIR MEANS FEW OR NO CLOUDS BELOW
12 THOUSAND FEET.



USA.gov is the U.S. government's official web portal to all federal, state and local government web resources and services.